This demonstration page uses our WeatherBlox Daily Observations layout. Learn more.

Left ArrowRight Arrow

Hourly Observations for October 26, 2020

Temp ( °F °C ) Dew Point ( °F °C ) Humidity (%) Winds ( mph kmh ) Pressure ( in mb ) Visibility ( mi km ) Precip ( " mm )
12:17 am 00:17 Mostly Cloudy with Light Snow 20 -6.7 16 -8.9 85 85 N 16 26 30.58 1036 1 1 0.00 0.00
12:51 am 00:51 Mostly Cloudy with Snow 19 -7 16 -9 86 86 N 15 24 30.60 1036 1 1 0.00 0.00
12:53 am 00:53 Mostly Cloudy with Snow 20 -6.7 16 -8.9 85 85 N 15 24 30.53 1034 1 1 0.00 0.00
1:19 am 01:19 Cloudy with Light Snow 20 -6.7 16 -8.9 85 85 N 17 28 30.58 1036 1 2 0.00 0.00
1:29 am 01:29 Cloudy with Light Snow 20 -6.7 15 -9.4 81 81 N 15 24 30.59 1036 3 4 0.00 0.00
1:36 am 01:36 Cloudy with Light Snow 20 -6.7 14 -10 78 78 N 17 28 30.58 1036 4 6 0.00 0.00
1:53 am 01:53 Cloudy with Light Snow 20 -6.7 15 -9.4 81 81 N 13 20 30.53 1034 7 11 0.00 0.00
2:53 am 02:53 Cloudy with Light Snow 20 -6.7 15 -9.4 81 81 N 16 26 30.52 1034 2 3 0.00 0.00
3:05 am 03:05 Mostly Cloudy with Light Snow 19 -7.2 16 -8.9 88 88 N 17 28 30.58 1035 1 1 0.00 0.00
3:26 am 03:26 Mostly Cloudy with Light Snow 19 -7.2 15 -9.4 84 84 N 13 20 30.58 1035 1 2 0.00 0.00
3:33 am 03:33 Cloudy with Light Snow 18 -7.8 15 -9.4 88 88 N 17 28 30.58 1036 1 2 0.00 0.00
3:40 am 03:40 Cloudy with Light Snow 18 -7.8 14 -10 84 84 N 14 22 30.58 1036 2 3 0.00 0.00
3:53 am 03:53 Cloudy with Light Snow 18 -7.8 14 -10 84 84 N 18 30 30.51 1033 3 4 0.00 0.00
4:05 am 04:05 Cloudy with Light Snow 18 -7.8 14 -10 84 84 N 16 26 30.57 1035 2 2 0.00 0.00
4:18 am 04:18 Cloudy with Light Snow 18 -8 14 -10 86 86 N 14 22 30.57 1035 2 3 0.00 0.00
4:42 am 04:42 Cloudy with Light Snow 18 -7.8 13 -10.6 81 81 N 15 24 30.56 1035 4 6 0.00 0.00
4:53 am 04:53 Cloudy with Light Snow 18 -7.8 13 -10.6 81 81 N 15 24 30.50 1033 7 11 0.00 0.00
5:53 am 05:53 Cloudy 17 -8.3 12 -11.1 80 80 N 13 20 30.50 1033 10 16 0.00 0.00
6:53 am 06:53 Mostly Cloudy with Light Snow 17 -8.3 11 -11.7 77 77 N 10 17 30.52 1033 10 16 0.00 0.00
7:53 am 07:53 Mostly Cloudy 17 -8.3 11 -11.7 77 77 NNW 10 17 30.53 1034 10 16 0.00 0.00
8:53 am 08:53 Cloudy with Light Snow 17 -8.3 11 -11.7 77 77 NNW 12 19 30.55 1035 3 5 0.00 0.00
8:56 am 08:56 Cloudy with Light Snow 17 -8.3 12 -11.1 80 80 NNW 12 19 30.62 1037 2 3 0.00 0.00
9:07 am 09:07 Cloudy with Light Snow 17 -8.3 12 -11.1 80 80 N 12 19 30.62 1037 1 2 0.00 0.00
9:14 am 09:14 Mostly Cloudy with Light Snow 17 -8.3 13 -10.6 84 84 N 12 19 30.62 1037 1 1 0.00 0.00
9:26 am 09:26 Mostly Cloudy with Heavy Snow 17 -8.3 13 -10.6 84 84 N 13 20 30.62 1037 0 0 0.00 0.00
9:44 am 09:44 Mostly Cloudy with Snow 18 -8 12 -11 79 79 N 12 19 30.60 1036 1 1 0.00 0.00
9:53 am 09:53 Mostly Cloudy with Snow 17 -8.3 13 -10.6 84 84 N 14 22 30.55 1035 1 1 0.01 0.25
10:04 am 10:04 Mostly Cloudy with Light Snow 17 -8.3 13 -10.6 84 84 N 14 22 30.61 1036 1 2 0.00 0.00
10:19 am 10:19 Cloudy with Light Snow 18 -7.8 13 -10.6 81 81 N 10 17 30.60 1036 3 5 0.00 0.00
10:41 am 10:41 Partly Cloudy with Scattered Snow Showers 18 -7.8 13 -10.6 81 81 N 10 17 30.61 1037 7 11 0.00 0.00
10:53 am 10:53 Partly Cloudy with Isolated Snow Showers 18 -7.8 12 -11.1 77 77 N 10 17 30.56 1035 9 14 0.00 0.00
11:53 am 11:53 Mostly Cloudy with Light Snow 20 -6.7 12 -11.1 71 71 NNE 10 17 30.53 1034 10 16 0.00 0.00
12:53 pm 12:53 Partly Cloudy with Isolated Snow Showers 24 -4.4 12 -11.1 60 60 NNE 8 13 30.53 1034 10 16 0.00 0.00
1:53 pm 13:53 Mostly Sunny 25 -3.9 12 -11.1 58 58 N 6 9 30.49 1033 10 16 0.00 0.00
2:53 pm 14:53 Partly Cloudy 26 -3.3 13 -10.6 57 57 Calm 30.48 1032 10 16 0.00 0.00
3:53 pm 15:53 Partly Cloudy 25 -3.9 13 -10.6 60 60 NW 5 7 30.47 1032 10 16 0.00 0.00
4:53 pm 16:53 Cloudy 26 -3.3 13 -10.6 57 57 N 5 7 30.46 1032 10 16 0.00 0.00
5:53 pm 17:53 Cloudy 26 -3.3 15 -9.4 63 63 NNW 7 11 30.45 1031 10 16 0.00 0.00
6:53 pm 18:53 Partly Cloudy 25 -3.9 15 -9.4 66 66 NW 5 7 30.45 1031 10 16 0.00 0.00
7:53 pm 19:53 Cloudy 25 -3.9 16 -8.9 69 69 NW 5 7 30.47 1032 10 16 0.00 0.00
8:53 pm 20:53 Cloudy 25 -3.9 15 -9.4 66 66 N 3 6 30.46 1032 10 16 0.00 0.00
9:53 pm 21:53 Cloudy 24 -4.4 15 -9.4 68 68 NW 5 7 30.47 1032 10 16 0.00 0.00
10:53 pm 22:53 Partly Cloudy 23 -5 14 -10 68 68 Calm 30.48 1032 10 16 0.00 0.00
11:53 pm 23:53 Cloudy 24 -4.4 14 -10 65 65 Calm 30.48 1032 10 16 0.00 0.00

Powered by AerisWeather